Location: Boda
(47.1872°N, 9.5454°E)
Time: 18:29:35
(UTC+00:00)

Cosmos 1378 Rocket - Pass Details

Date: 14 May 2021
Orbit: 602 x 627 km, 82.5° (Epoch: 16 June)

Event Time Altitude Azimuth Distance (km) Brightness Sun altitude
Exits shadow 00:43:16 48° 259° (WSW) 797 3.8 -21.4°
Maximum altitude 00:43:45 51° 283° (WNW) 769 3.9 -21.4°
Drops below altitude 10° 00:47:58 10° 360° (N) 1,960 7.1 -21.1°
Sets 00:50:15 0° 5° (N) 2,867 8.3 -21.0°
